When you browse on this site, cookies collect data to enhance your experience and personalize the content and advertising you see.
Visit our Privacy Policy to learn more. By continuing to use the site, you agree to this use of cookies and data.
  • En España
  • Lista de países
  • Para 7 días
  • Temperatura del agua
  • Mapa Satelital
  • El tiempo en el mapa
  • Informadores
  • user-avatar
    Iniciar sesión

    Tiempo cada hora Newcastle

    Hoy, 18 Febrero, Lunes

    Tiempo Temperatura Precipitaciones Viento Presión Humedad
    00:00 +21°C° 0 mm 4 mps 758 mmHg 79%
    01:00 +20°C° 0 mm 4 mps 758 mmHg 82%
    02:00 +20°C° 0 mm 4 mps 757 mmHg 85%
    03:00 +19°C° 0 mm 3 mps 757 mmHg 87%
    04:00 +18°C° 0 mm 2 mps 757 mmHg 91%
    05:00 +19°C° 0 mm 2 mps 757 mmHg 86%
    06:00 +20°C° 0 mm 2 mps 757 mmHg 81%
    07:00 +21°C° 0 mm 2 mps 757 mmHg 76%
    08:00 +26°C° 0 mm 2 mps 757 mmHg 63%
    09:00 +30°C° 0 mm 2 mps 757 mmHg 50%
    10:00 +34°C° 0 mm 1 mps 757 mmHg 38%
    11:00 +37°C° 0 mm 2 mps 756 mmHg 34%
    12:00 +38°C° 0 mm 3 mps 756 mmHg 29%
    13:00 +40°C° 0 mm 4 mps 755 mmHg 25%
    14:00 +40°C° 0 mm 4 mps 755 mmHg 26%
    15:00 +39°C° 0 mm 5 mps 754 mmHg 27%
    16:00 +37°C° 0 mm 8 mps 754 mmHg 34%
    17:00 +34°C° 0 mm 7 mps 754 mmHg 42%
    18:00 +32°C° 0 mm 6 mps 754 mmHg 50%
    19:00 +28°C° 0 mm 6 mps 755 mmHg 57%
    20:00 +27°C° 0 mm 5 mps 755 mmHg 60%
    21:00 +27°C° 0 mm 5 mps 755 mmHg 63%
    22:00 +25°C° 0 mm 5 mps 755 mmHg 70%
    23:00 +25°C° 0 mm 4 mps 755 mmHg 72%

    Mañana, 19 Febrero, Martes

    Tiempo Temperatura Precipitaciones Viento Presión Humedad
    00:00 +23°C° 0 mm 4 mps 754 mmHg 74%
    01:00 +22°C° 0 mm 4 mps 754 mmHg 77%
    02:00 +22°C° 0 mm 3 mps 754 mmHg 78%
    03:00 +21°C° 0 mm 3 mps 754 mmHg 79%
    04:00 +21°C° 0 mm 2 mps 753 mmHg 80%
    05:00 +23°C° 0 mm 2 mps 753 mmHg 75%
    06:00 +24°C° 0 mm 2 mps 753 mmHg 69%
    07:00 +25°C° 0 mm 2 mps 754 mmHg 63%
    08:00 +29°C° 0 mm 2 mps 754 mmHg 51%
    09:00 +33°C° 0 mm 1 mps 754 mmHg 39%
    10:00 +36°C° 0 mm 1 mps 754 mmHg 27%
    11:00 +37°C° 0 mm 3 mps 753 mmHg 32%
    12:00 +36°C° 0 mm 5 mps 753 mmHg 36%
    13:00 +36°C° 0 mm 7 mps 753 mmHg 40%
    14:00 +33°C° 0 mm 7 mps 753 mmHg 53%
    15:00 +29°C° 0 mm 6 mps 753 mmHg 67%
    16:00 +26°C° 0 mm 6 mps 753 mmHg 80%
    17:00 +26°C° 0.1 mm 6 mps 754 mmHg 82%
    18:00 +24°C° 0.1 mm 6 mps 755 mmHg 83%
    19:00 +25°C° 0.1 mm 5 mps 755 mmHg 84%
    20:00 +24°C° 0.1 mm 6 mps 756 mmHg 85%
    21:00 +24°C° 0.1 mm 6 mps 757 mmHg 85%
    22:00 +24°C° 0.1 mm 6 mps 757 mmHg 86%
    23:00 +23°C° 0.2 mm 6 mps 757 mmHg 87%

    Pasado mañana, 20 Febrero, Miércoles

    Tiempo Temperatura Precipitaciones Viento Presión Humedad
    00:00 +23°C° 0.2 mm 6 mps 757 mmHg 89%
    01:00 +23°C° 0.2 mm 6 mps 757 mmHg 91%
    02:00 +22°C° 0.2 mm 6 mps 757 mmHg 92%
    03:00 +22°C° 0.2 mm 6 mps 756 mmHg 92%
    04:00 +22°C° 0.2 mm 6 mps 756 mmHg 93%
    05:00 +22°C° 0.1 mm 6 mps 756 mmHg 93%
    06:00 +22°C° 0.1 mm 6 mps 757 mmHg 93%
    07:00 +22°C° 0.1 mm 5 mps 757 mmHg 94%
    08:00 +22°C° 0.2 mm 6 mps 757 mmHg 93%
    09:00 +22°C° 0.2 mm 6 mps 757 mmHg 92%
    10:00 +23°C° 0.2 mm 6 mps 758 mmHg 91%
    11:00 +23°C° 0.1 mm 6 mps 757 mmHg 89%
    12:00 +23°C° 0.1 mm 6 mps 757 mmHg 88%
    13:00 +23°C° 0.1 mm 6 mps 757 mmHg 86%
    14:00 +23°C° 0 mm 6 mps 756 mmHg 85%
    15:00 +23°C° 0 mm 7 mps 756 mmHg 83%
    16:00 +23°C° 0 mm 7 mps 756 mmHg 82%
    17:00 +23°C° 0.1 mm 6 mps 756 mmHg 83%
    18:00 +23°C° 0.1 mm 6 mps 757 mmHg 85%
    19:00 +22°C° 0.1 mm 6 mps 757 mmHg 87%
    20:00 +22°C° 0.3 mm 5 mps 758 mmHg 89%
    21:00 +22°C° 0.3 mm 5 mps 758 mmHg 92%
    22:00 +22°C° 0.3 mm 5 mps 759 mmHg 94%
    23:00 +22°C° 0.5 mm 5 mps 759 mmHg 94%

    21 Febrero, Jueves

    Tiempo Temperatura Precipitaciones Viento Presión Humedad
    00:00 +22°C° 0.5 mm 5 mps 758 mmHg 94%
    01:00 +22°C° 0.5 mm 5 mps 758 mmHg 94%
    02:00 +22°C° 0.2 mm 5 mps 758 mmHg 94%
    03:00 +22°C° 0.2 mm 5 mps 758 mmHg 94%
    04:00 +22°C° 0.2 mm 6 mps 758 mmHg 94%
    05:00 +21°C° 0.4 mm 6 mps 759 mmHg 94%
    06:00 +21°C° 0.4 mm 6 mps 759 mmHg 93%
    07:00 +21°C° 0.4 mm 7 mps 760 mmHg 93%
    08:00 +22°C° 0.1 mm 7 mps 760 mmHg 85%
    09:00 +23°C° 0.1 mm 7 mps 760 mmHg 78%
    10:00 +24°C° 0.1 mm 8 mps 761 mmHg 70%
    11:00 +24°C° 0.1 mm 7 mps 760 mmHg 71%
    12:00 +23°C° 0.1 mm 7 mps 760 mmHg 72%
    13:00 +23°C° 0.1 mm 6 mps 760 mmHg 73%
    14:00 +23°C° 0 mm 6 mps 760 mmHg 70%
    15:00 +24°C° 0 mm 7 mps 760 mmHg 68%
    16:00 +24°C° 0 mm 7 mps 760 mmHg 65%
    17:00 +23°C° 0 mm 7 mps 760 mmHg 67%
    18:00 +23°C° 0 mm 7 mps 761 mmHg 70%
    19:00 +22°C° 0 mm 6 mps 761 mmHg 72%
    20:00 +22°C° 0 mm 6 mps 761 mmHg 73%
    21:00 +22°C° 0 mm 6 mps 762 mmHg 75%
    22:00 +21°C° 0 mm 6 mps 762 mmHg 76%
    23:00 +21°C° 0.2 mm 6 mps 762 mmHg 78%

    22 Febrero, Viernes

    Tiempo Temperatura Precipitaciones Viento Presión Humedad
    00:00 +21°C° 0.2 mm 6 mps 762 mmHg 81%
    01:00 +21°C° 0.2 mm 6 mps 761 mmHg 83%
    02:00 +21°C° 0.2 mm 6 mps 761 mmHg 83%
    03:00 +20°C° 0.2 mm 7 mps 761 mmHg 84%
    04:00 +20°C° 0.2 mm 7 mps 761 mmHg 84%
    05:00 +20°C° 0.1 mm 7 mps 761 mmHg 82%
    06:00 +20°C° 0.1 mm 7 mps 762 mmHg 80%
    07:00 +20°C° 0.1 mm 7 mps 762 mmHg 78%
    08:00 +21°C° 0.1 mm 7 mps 762 mmHg 76%
    09:00 +21°C° 0.1 mm 7 mps 763 mmHg 75%
    10:00 +21°C° 0.1 mm 6 mps 763 mmHg 74%
    11:00 +22°C° 0.2 mm 7 mps 763 mmHg 73%
    12:00 +22°C° 0.2 mm 7 mps 762 mmHg 72%
    13:00 +23°C° 0.2 mm 8 mps 762 mmHg 71%
    14:00 +23°C° 0.2 mm 8 mps 762 mmHg 68%
    15:00 +23°C° 0.2 mm 8 mps 762 mmHg 65%
    16:00 +23°C° 0.2 mm 9 mps 762 mmHg 62%
    17:00 +22°C° 0.1 mm 8 mps 762 mmHg 66%
    18:00 +22°C° 0.1 mm 8 mps 762 mmHg 70%
    19:00 +21°C° 0.1 mm 7 mps 763 mmHg 73%
    20:00 +21°C° 0.2 mm 7 mps 763 mmHg 76%
    21:00 +20°C° 0.2 mm 7 mps 763 mmHg 78%
    22:00 +20°C° 0.2 mm 7 mps 763 mmHg 80%
    23:00 +20°C° 0.3 mm 7 mps 763 mmHg 81%

    23 Febrero, Sábado

    Tiempo Temperatura Precipitaciones Viento Presión Humedad
    00:00 +20°C° 0.3 mm 7 mps 762 mmHg 83%
    01:00 +20°C° 0.3 mm 8 mps 762 mmHg 84%
    02:00 +20°C° 0.4 mm 8 mps 762 mmHg 85%
    03:00 +20°C° 0.4 mm 8 mps 762 mmHg 86%
    04:00 +20°C° 0.4 mm 8 mps 761 mmHg 86%
    05:00 +20°C° 0.3 mm 8 mps 762 mmHg 85%
    06:00 +20°C° 0.3 mm 8 mps 762 mmHg 84%
    07:00 +20°C° 0.3 mm 8 mps 762 mmHg 83%
    08:00 +21°C° 0.2 mm 8 mps 763 mmHg 75%
    09:00 +23°C° 0.2 mm 8 mps 763 mmHg 67%
    10:00 +24°C° 0.2 mm 9 mps 763 mmHg 59%
    11:00 +24°C° 0.2 mm 9 mps 763 mmHg 61%
    12:00 +23°C° 0.2 mm 9 mps 763 mmHg 64%
    13:00 +22°C° 0.2 mm 9 mps 763 mmHg 67%
    14:00 +23°C° 0.2 mm 9 mps 763 mmHg 66%
    15:00 +23°C° 0.2 mm 8 mps 763 mmHg 64%
    16:00 +23°C° 0.2 mm 8 mps 763 mmHg 63%
    17:00 +22°C° 0.1 mm 8 mps 764 mmHg 67%
    18:00 +21°C° 0.1 mm 8 mps 764 mmHg 71%
    19:00 +20°C° 0.1 mm 7 mps 765 mmHg 75%
    20:00 +20°C° 0.1 mm 7 mps 765 mmHg 74%
    21:00 +21°C° 0.1 mm 7 mps 765 mmHg 73%
    22:00 +21°C° 0.1 mm 7 mps 765 mmHg 72%
    23:00 +21°C° 0.1 mm 7 mps 765 mmHg 73%
    Mostrar más